Orbital Elements at Epoch 2459200.5 (2020-Dec-17.0) TDB
Reference: JPL 26 (heliocentric ecliptic J2000)
Element | Value | Uncertainty (1-sigma) | Units |
e | .05816016143202798 | 3.6231e-08 | |
a | 2.88306323987566 | 1.2352e-08 | au |
q | 2.715383816425746 | 1.0281e-07 | au |
i | 11.90001078183613 | 4.9717e-06 | deg |
node | 192.0533373434754 | 1.5604e-05 | deg |
peri | 141.8570314778867 | 4.2895e-05 | deg |
M | 70.47746319341948 | 4.0264e-05 | deg |
tp | 2458850.452127370206 (2020-Jan-01.95212737) | 0.00019953 | TDB |
period | 1788.050086321666 4.90 | 1.1491e-05 3.146e-08 | d yr |
n | .2013366419397028 | 1.2939e-09 | deg/d |
Q | 3.050742663325574 | 1.3071e-08 | au |
|
| | Orbit Determination Parameters
Additional Information
|